XW-2D (40907 NORAD) Tracking and Keplerian Element Data

This shows tracking and keplerian element data for the satellite.

Feedback or suggestion? Click here.




ElementValue
Catalog40907
NameXW-2D
Epoch Orbit39679
Epoch Day325.23043001
Epoch Year2022
RAAN327.7391
Inclination97.4961
Eccentricity0.0012949
Argument of Perigee157.8708
Mean Anonmoly261.5984
Mean Motion15.21849772
Decay Rate6.568E-05
L11 40907U 15049J 22325.23043001 .00006568 00000+0 29140-3 0 9999
L22 40907 97.4961 327.7391 0012949 157.8708 261.5984 15.21849772396796



Live tracking and technical data element details for XW-2D (NORAD 40907). XW-2D can be tracked NOW for your location showing map with azimuth and elevation plus other details from your city location.







IsCatalogInMostPopularTable: catalog: 40907, numindb: 530
Update: records affected: 1



GetName: 40907 XW-2D

Hit Count: updated at: Mon, 28 Nov 2022 05:55:03 GMT